[[{"header":{"parameterUnit":"m.s-1","parameterCategory":1,"la1":30.2991,"la2":30.254,"lo1":-89.0895,"lo2":-89.0444,"dy":0.0017,"dx":0.0017,"nx":28,"ny":28,"refTime":"2024-04-05T21:00:00:Z","depth":0,"parameterNumber":2,"parameterNumberName":"U-component_of_WINDS"},"data":[0,0,0,0,0,0,0,0,0,0,0,0,0,0,0,0,0,0,0,0,0,0,0,0,0,0,0,0,0,0,0,0,0,0,0,0,0,0,0,0,0,0,0,0,0,0,0,0,0,0,0,0,0,0,0,0,0,0,-5.0462,-5.0462,0,-5.0456,-5.0456,-5.0456,-5.0277,-5.0273,-5.0268,-5.0264,-5.0262,-5.0266,-5.0271,0,0,0,0,0,0,0,0,0,0,0,0,0,-5.0321,-5.0324,-5.0462,-5.0462,-5.0462,-5.0456,-5.0456,-5.0456,-5.0278,-5.0273,-5.0267,-5.0262,-5.0261,-5.0266,-5.0271,0,0,0,0,0,0,0,0,0,0,0,0,0,-5.0356,-5.0325,-5.0462,-5.0372,-5.0364,-5.0456,-5.0456,-5.0456,-5.0279,-5.0272,-5.0265,-5.0259,-5.0259,-5.0265,-5.0272,-5.0451,0,0,-5.0291,-5.0294,0,0,0,0,0,0,0,0,-5.0354,-5.0361,-5.0385,-5.0379,-5.037,-5.036,-5.0406,-5.0455,-5.0281,-5.0312,-5.0264,-5.0256,-5.0301,-5.0303,-5.0318,-5.0451,-5.0451,-5.0292,-5.0296,-5.0299,-5.0301,0,0,0,0,0,0,0,-5.0352,-5.036,-5.046,-5.0386,-5.0376,-5.0333,-5.033,-5.0414,-5.0346,-5.0309,-5.0295,-5.0297,-5.0295,-5.0312,-5.0316,-5.0451,-5.0292,-5.0298,-5.0302,-5.0304,-5.0728,-5.0735,0,0,0,0,0,0,-5.0361,-5.0359,-5.046,-5.046,-5.0344,-5.0341,-5.0338,-5.037,-5.0344,-5.0333,-5.0303,-5.0289,-5.0304,-5.0309,-5.0316,-5.0522,-5.0299,-5.0305,-5.0308,-5.0721,-5.073,-5.0738,0,0,0,0,0,0,-5.0359,-5.0372,-5.046,-5.0406,-5.0414,-5.0351,-5.0389,-5.0374,-5.039,-5.034,-5.0327,-5.0333,-5.0299,-5.0307,-5.0418,-5.0519,-5.0308,-5.0313,-5.0712,-5.0723,-5.0734,-5.0937,0,0,0,0,0,0,-5.0355,-5.0372,-5.0439,-5.0409,-5.0417,-5.0562,-5.0395,-5.0379,-5.0402,-5.0383,-5.0364,-5.0355,-5.0294,-5.0409,-5.0424,-5.0524,-5.0318,-5.0702,-5.0717,-5.073,-5.0921,-5.0953,-5.0981,0,0,0,0,0,-5.0351,-5.0498,-5.0443,-5.0457,-5.05,-5.0568,-5.0573,-5.05,-5.0411,-5.0477,-5.0445,-5.0355,-5.0506,-5.0422,-5.0437,-5.0541,-5.0696,-5.0713,-5.0729,-5.0907,-5.0947,-5.0981,0,0,0,0,0,0,-5.0544,-5.0492,-5.0431,-5.0573,-5.0576,-5.0538,-5.062,-5.0545,-5.0575,-5.0556,-5.0465,-5.0462,-5.0588,-5.0575,-5.0483,-5.0712,-5.0585,-5.0606,-5.0715,-5.0753,-5.0782,-5.0782,-5.0324,0,0,0,0,0,-5.0603,-5.0662,-5.0614,-5.0743,-5.0748,-5.0685,-5.0712,-5.0654,-5.0655,-5.0656,-5.0631,-5.0636,-5.0684,-5.0718,-5.0759,-5.0918,-5.0911,-5.0997,-5.1027,-5.1052,-5.1071,-5.1152,-5.119,-5.0792,-5.0792,-5.0792,0,0,-5.0725,-5.0704,-5.0748,-5.0781,-5.0777,-5.0841,-5.0687,-5.0761,-5.0808,-5.0667,-5.077,-5.0752,-5.0752,-5.0887,-5.0945,-5.0881,-5.1179,-5.1074,-5.1094,-5.1099,-5.1173,-5.1211,-5.1245,-5.0804,-5.0801,-5.08,0,0,-5.098,-5.0971,-5.1076,-5.1075,-5.1069,-5.1026,-5.1052,-5.1025,-5.1007,-5.1108,-5.1003,-5.1058,-5.1143,-5.1146,-5.1159,-5.1414,-5.1332,-5.143,-5.1588,-5.1669,-5.17,-5.1727,-5.1817,-5.185,-5.1449,-5.1449,-5.145,0,-5.1133,-5.1224,-5.1141,-5.1221,-5.1238,-5.1113,-5.1218,-5.1222,-5.1232,-5.1247,-5.1174,-5.1276,-5.1268,-5.1401,-5.1463,-5.1478,-5.1504,-5.1431,-5.1702,-5.1729,-5.1753,-5.1837,-5.1871,-5.1461,-5.146,-5.1459,-5.1457,0,-5.1411,-5.1476,-5.1562,-5.1572,-5.1599,-5.1693,-5.1624,-5.1662,-5.1602,-5.1567,-5.167,-5.1655,-5.169,-5.1717,-5.1661,-5.1843,-5.1802,-5.1718,-5.1588,-5.1804,-5.1881,-5.1913,-5.1478,-5.1474,-5.147,-5.1467,0,0,-5.1789,-5.1749,-5.1782,-5.1784,-5.1769,-5.1817,-5.1905,-5.1937,-5.1971,-5.1982,-5.2053,-5.2127,-5.2047,-5.2062,-5.2004,-5.2075,-5.2276,-5.1981,-5.1979,-5.2035,-5.2474,-5.2537,-5.2576,-5.2222,-5.2228,-5.2232,-5.2473,0,-5.2034,-5.2178,-5.2105,-5.226,-5.2318,-5.2198,-5.2274,-5.2273,-5.2242,-5.2287,-5.2253,-5.2307,-5.2198,-5.2206,-5.2271,-5.2238,-5.2363,-5.222,-5.2287,-5.229,-5.2289,-5.2616,-5.2684,-5.2911,-5.2503,-5.2508,-5.2512,0,-5.2339,-5.236,-5.252,-5.2491,-5.2513,-5.2582,-5.2605,-5.265,-5.2646,-5.2618,-5.2635,-5.256,-5.2644,-5.2516,-5.263,-5.2534,-5.2557,-5.2545,-5.2552,-5.2555,-5.2413,-5.2627,-5.2982,-5.3017,-5.2559,-5.2555,-5.2552,0,-5.2596,-5.2665,-5.2768,-5.2774,-5.2744,-5.2795,-5.2786,-5.2775,-5.2798,-5.2819,-5.2833,-5.2865,-5.2882,-5.2908,-5.2844,-5.2757,-5.2966,-5.2833,-5.2945,-5.2947,-5.2994,-5.2992,-5.3358,-5.3012,-5.3011,-5.3011,-5.301,0,-5.2877,-5.2979,-5.2883,-5.2947,-5.3057,-5.2973,-5.3085,-5.3062,-5.3053,-5.3111,-5.3011,-5.3067,-5.298,-5.3028,-5.2979,-5.3079,-5.3089,-5.3068,-5.3054,-5.3077,-5.3079,-5.309,-5.3072,-5.302,-5.3018,-5.3016,-5.3015,0,-5.3182,-5.3122,-5.3227,-5.3189,-5.3182,-5.3265,-5.3232,-5.329,-5.3252,-5.3326,-5.3338,-5.3279,-5.333,-5.3268,-5.3315,-5.3282,-5.3418,-5.3381,-5.3419,-5.3408,-5.3523,-5.3512,-5.3907,-5.3954,-5.358,-5.3584,-5.3587,0,-5.3364,-5.344,-5.3409,-5.3439,-5.3435,-5.3486,-5.3508,-5.3428,-5.3456,-5.3456,-5.3514,-5.3556,-5.3585,-5.3673,-5.3634,-5.3669,-5.3631,-5.3767,-5.3636,-5.3656,-5.3631,-5.3627,-5.3633,-5.3794,-5.3798,-5.3802,-5.3805,0,-5.3694,-5.366,-5.3695,-5.3721,-5.3751,-5.3767,-5.3777,-5.3808,-5.3724,-5.3761,-5.381,-5.3833,-5.3879,-5.3922,-5.3946,-5.3936,-5.3858,-5.3847,-5.3874,-5.3897,-5.3916,-5.3906,-5.3491,-5.3838,-5.3834,-5.3832,-5.383,-5.3829,-5.3942,-5.4002,-5.3989,-5.4032,-5.403,-5.4041,-5.4092,-5.4059,-5.4099,-5.4129,-5.4079,-5.4142,-5.4135,-5.4158,-5.4158,-5.4206,-5.4147,-5.4188,-5.4198,-5.4209,-5.4225,-5.3909,-5.421,-5.4209,-5.4208,-5.4207,-5.4207,0,-5.4264,-5.425,-5.429,-5.4305,-5.4339,-5.4259,-5.4265,-5.4299,-5.4355,-5.4354,-5.4384,-5.4441,-5.4482,-5.4446,-5.448,-5.4525,-5.449,-5.4537,-5.4532,-5.4531,-5.4276,-5.4248,-5.4565,-5.4565,-5.4565,-5.4565,-5.4565,-5.4564,-5.4436,-5.4533,-5.4498,-5.4593,-5.4578,-5.4636,-5.4646,-5.4656,-5.4654,-5.4722,-5.4754,-5.473,-5.4715,-5.4747,-5.4781,-5.4769,-5.4786,-5.4846,-5.4821,-5.4584,-5.4549,-5.4515,-5.4488,-5.485,-5.4851,-5.5071,-5.5073,-5.5075]},{"header":{"parameterUnit":"m.s-1","parameterCategory":1,"la1":30.2991,"la2":30.254,"lo1":-89.0895,"lo2":-89.0444,"dy":0.0017,"dx":0.0017,"nx":28,"ny":28,"refTime":"2024-04-05T21:00:00:Z","depth":0,"parameterNumber":3,"parameterNumberName":"V-component_of_WINDS"},"data":[0,0,0,0,0,0,0,0,0,0,0,0,0,0,0,0,0,0,0,0,0,0,0,0,0,0,0,0,0,0,0,0,0,0,0,0,0,0,0,0,0,0,0,0,0,0,0,0,0,0,0,0,0,0,0,0,0,0,-2.3196,-2.3197,0,-2.3233,-2.3233,-2.3234,-2.3223,-2.3223,-2.3222,-2.3221,-2.3257,-2.3259,-2.326,0,0,0,0,0,0,0,0,0,0,0,0,0,-2.3114,-2.3115,-2.3196,-2.3197,-2.3197,-2.3233,-2.3234,-2.3234,-2.3223,-2.3222,-2.3222,-2.3221,-2.3256,-2.3258,-2.326,0,0,0,0,0,0,0,0,0,0,0,0,0,-2.315,-2.3116,-2.3196,-2.3196,-2.3197,-2.3233,-2.3234,-2.3234,-2.3224,-2.3222,-2.3221,-2.322,-2.3256,-2.3258,-2.3261,-2.3299,0,0,-2.3268,-2.3269,0,0,0,0,0,0,0,0,-2.3148,-2.3153,-2.3196,-2.3196,-2.3197,-2.3222,-2.3218,-2.3256,-2.3224,-2.3213,-2.3221,-2.322,-2.3246,-2.3249,-2.3259,-2.33,-2.3302,-2.3268,-2.327,-2.3271,-2.3272,0,0,0,0,0,0,0,-2.3145,-2.3151,-2.3211,-2.3196,-2.3197,-2.3193,-2.3197,-2.3225,-2.3236,-2.3214,-2.3213,-2.3218,-2.3246,-2.3256,-2.326,-2.3302,-2.3268,-2.3271,-2.3272,-2.3273,-2.3374,-2.3375,0,0,0,0,0,0,-2.3143,-2.3149,-2.321,-2.3212,-2.3169,-2.3196,-2.32,-2.3215,-2.3235,-2.3237,-2.3219,-2.3217,-2.3253,-2.3257,-2.3261,-2.3305,-2.3271,-2.3273,-2.3275,-2.3373,-2.3374,-2.3375,0,0,0,0,0,0,-2.3141,-2.3148,-2.3208,-2.318,-2.3188,-2.3198,-2.3216,-2.3217,-2.3227,-2.3239,-2.3241,-2.3228,-2.3252,-2.3257,-2.3289,-2.3306,-2.3274,-2.3277,-2.3371,-2.3373,-2.3375,-2.3394,0,0,0,0,0,0,-2.3139,-2.3148,-2.3163,-2.3181,-2.3189,-2.3237,-2.3217,-2.3218,-2.3231,-2.323,-2.3247,-2.3249,-2.3252,-2.3285,-2.3291,-2.3309,-2.3279,-2.337,-2.3372,-2.3374,-2.3392,-2.3396,-2.34,0,0,0,0,0,-2.3136,-2.3167,-2.3164,-2.3171,-2.3209,-2.3238,-2.3242,-2.3245,-2.3233,-2.3248,-2.3255,-2.3249,-2.3303,-2.3288,-2.3295,-2.3314,-2.3369,-2.3371,-2.3374,-2.339,-2.3395,-2.3399,0,0,0,0,0,0,-2.3152,-2.317,-2.3166,-2.3205,-2.322,-2.3236,-2.3255,-2.3251,-2.3269,-2.3267,-2.3268,-2.3272,-2.3304,-2.3312,-2.3295,-2.335,-2.3334,-2.3338,-2.3344,-2.3349,-2.3353,-2.335,-2.3281,0,0,0,0,0,-2.316,-2.3182,-2.3196,-2.3229,-2.3236,-2.3244,-2.3257,-2.3257,-2.3273,-2.3279,-2.3289,-2.3303,-2.3323,-2.3337,-2.3356,-2.3393,-2.3395,-2.3409,-2.3413,-2.3416,-2.3419,-2.3437,-2.3442,-2.3384,-2.3384,-2.3384,0,0,-2.3176,-2.3189,-2.3203,-2.3232,-2.3244,-2.3266,-2.325,-2.3274,-2.329,-2.3282,-2.3312,-2.332,-2.3336,-2.337,-2.3385,-2.3377,-2.3436,-2.3419,-2.3422,-2.3423,-2.344,-2.3445,-2.345,-2.3386,-2.3385,-2.3385,0,0,-2.3217,-2.323,-2.3257,-2.3269,-2.3286,-2.3291,-2.3298,-2.3314,-2.3319,-2.3349,-2.3343,-2.3361,-2.3397,-2.3407,-2.3418,-2.3461,-2.3455,-2.3467,-2.3488,-2.3505,-2.3509,-2.3513,-2.3527,-2.3532,-2.347,-2.347,-2.347,0,-2.3235,-2.3269,-2.3272,-2.3296,-2.3308,-2.3302,-2.3328,-2.3339,-2.3362,-2.337,-2.3362,-2.3404,-2.3415,-2.345,-2.346,-2.3469,-2.3475,-2.3465,-2.3509,-2.3513,-2.3516,-2.3529,-2.3535,-2.3472,-2.3471,-2.3471,-2.3471,0,-2.3289,-2.3313,-2.3332,-2.3354,-2.3369,-2.3394,-2.3399,-2.3413,-2.3412,-2.3417,-2.3446,-2.3459,-2.3479,-2.3488,-2.3487,-2.3522,-2.3516,-2.3508,-2.3492,-2.3523,-2.3535,-2.354,-2.3473,-2.3473,-2.3473,-2.3472,0,0,-2.3342,-2.3364,-2.3371,-2.338,-2.3398,-2.3415,-2.3439,-2.346,-2.3471,-2.3487,-2.3506,-2.3535,-2.3526,-2.3538,-2.3538,-2.3554,-2.3584,-2.3543,-2.3543,-2.3549,-2.3621,-2.3626,-2.3632,-2.3581,-2.3582,-2.3582,-2.3619,0,-2.3383,-2.3427,-2.3428,-2.3467,-2.3487,-2.3481,-2.3501,-2.3514,-2.3519,-2.3536,-2.3541,-2.3561,-2.355,-2.3556,-2.3571,-2.3577,-2.3599,-2.3575,-2.3597,-2.3598,-2.3592,-2.3639,-2.3645,-2.3679,-2.3624,-2.3625,-2.3626,0,-2.3438,-2.3454,-2.3495,-2.3508,-2.3517,-2.3535,-2.3553,-2.357,-2.3583,-2.3585,-2.3597,-2.3595,-2.3618,-2.3601,-2.3632,-2.3616,-2.3625,-2.3629,-2.363,-2.3632,-2.3613,-2.364,-2.369,-2.3695,-2.3633,-2.3633,-2.3632,0,-2.347,-2.3502,-2.353,-2.3538,-2.3555,-2.3568,-2.3575,-2.3587,-2.3599,-2.3614,-2.3621,-2.3639,-2.3648,-2.3661,-2.3663,-2.3651,-2.3693,-2.3677,-2.3694,-2.3694,-2.3703,-2.3702,-2.3754,-2.3711,-2.371,-2.371,-2.371,0,-2.3515,-2.354,-2.3544,-2.3562,-2.3588,-2.3589,-2.3615,-2.3622,-2.3632,-2.3649,-2.3645,-2.3661,-2.3663,-2.3679,-2.368,-2.3704,-2.3709,-2.3711,-2.371,-2.371,-2.371,-2.3716,-2.3713,-2.3712,-2.3711,-2.3711,-2.3711,0,-2.3555,-2.356,-2.3589,-2.3602,-2.3606,-2.3625,-2.3635,-2.365,-2.3654,-2.3676,-2.3681,-2.3687,-2.3706,-2.3709,-2.3731,-2.3731,-2.376,-2.3758,-2.3755,-2.3754,-2.3771,-2.3769,-2.3827,-2.3834,-2.3788,-2.3788,-2.3789,0,-2.3583,-2.3602,-2.3616,-2.3627,-2.3635,-2.3653,-2.3664,-2.3666,-2.3677,-2.3693,-2.3706,-2.3724,-2.3738,-2.3768,-2.3774,-2.379,-2.3787,-2.3807,-2.379,-2.3788,-2.3786,-2.3784,-2.3785,-2.381,-2.381,-2.3811,-2.3811,0,-2.3631,-2.3632,-2.3649,-2.3666,-2.3679,-2.3692,-2.3705,-2.3714,-2.3717,-2.373,-2.3749,-2.376,-2.3782,-2.3799,-2.3814,-2.3821,-2.3816,-2.3816,-2.3821,-2.382,-2.3817,-2.3817,-2.3763,-2.3815,-2.3814,-2.3814,-2.3814,-2.3814,-2.3665,-2.3681,-2.3692,-2.371,-2.372,-2.3731,-2.3746,-2.3751,-2.3767,-2.3785,-2.3784,-2.3804,-2.3815,-2.3836,-2.3843,-2.3858,-2.3852,-2.3859,-2.386,-2.3862,-2.3862,-2.3816,-2.3861,-2.3861,-2.3861,-2.3861,-2.3861,0,-2.3712,-2.3719,-2.3735,-2.3753,-2.3766,-2.3761,-2.3774,-2.3785,-2.3803,-2.3814,-2.3828,-2.3848,-2.3864,-2.3871,-2.3887,-2.3897,-2.3895,-2.3901,-2.3899,-2.3901,-2.3868,-2.3862,-2.3902,-2.3902,-2.3902,-2.3902,-2.3902,-2.3902,-2.3738,-2.3763,-2.3765,-2.3793,-2.38,-2.382,-2.3827,-2.3837,-2.3845,-2.3868,-2.3882,-2.3886,-2.3895,-2.3911,-2.3925,-2.3926,-2.3931,-2.3938,-2.3938,-2.3907,-2.3903,-2.3899,-2.3893,-2.394,-2.394,-2.3969,-2.397,-2.397]}]]